DW4604 Weather Reports


Display with metric or nautical units.
time (UTC)temp
F
wind
direction
speed
MPH
gust
MPH
rain 1hr
in
rain 24hr
in
rain mn
in
humidity
%
barometer
mb
20201026012509 49 170 2.0 6.0 0.00 0.01 0.00 98 1009.1
20201026012006 49 158 1.0 6.0 0.00 0.01 0.00 98 1009.0
20201026011514 49 164 1.0 4.0 0.00 0.01 0.00 98 1009.0
20201026011011 49 169 1.0 3.0 0.00 0.01 0.00 98 1009.3
20201026010513 49 161 1.0 3.0 0.00 0.01 0.00 98 1009.3
20201026010024 49 175 1.0 3.0 0.00 0.01 0.00 98 1009.4
20201026005508 49 184 2.0 4.0 0.00 0.01 0.00 98 1009.5
20201026005005 49 185 2.0 4.0 0.00 0.01 0.00 98 1009.6
20201026004517 49 186 1.0 4.0 0.00 0.01 0.00 98 1009.6
20201026004027 49 170 1.0 3.0 0.00 0.01 0.00 98 1009.6
20201026003536 49 172 2.0 4.0 0.00 0.01 0.00 98 1009.6
20201026003027 49 171 1.0 4.0 0.00 0.01 0.00 97 1009.6
20201026002515 49 164 1.0 3.0 0.00 0.01 0.00 97 1009.6
20201026002009 49 181 1.0 4.0 0.00 0.01 0.00 97 1009.6
20201026001517 49 185 1.0 4.0 0.00 0.01 0.00 97 1009.6
20201026001007 49 164 1.0 3.0 0.00 0.01 0.00 97 1009.7
20201026000520 49 157 1.0 3.0 0.00 0.01 0.00 97 1009.8
20201026000018 49 163 1.0 5.0 0.00 0.01 0.00 97 1009.8
20201025235933 49 164 1.0 5.0 0.00 0.01 0.00 97 1009.8
20201025235436 49 173 2.0 5.0 0.00 0.01 0.00 97 1009.8
20201025234933 49 186 2.0 5.0 0.00 0.01 0.00 97 1009.8
20201025234431 49 187 2.0 5.0 0.00 0.01 0.00 97 1009.9
20201025233935 49 177 1.0 4.0 0.00 0.01 0.00 97 1009.9
20201025233431 49 178 1.0 3.0 0.00 0.01 0.00 97 1009.9
20201025232931 49 190 0.0 2.0 0.00 0.01 0.00 97 1009.9
20201025232430 49 145 0.0 2.0 0.00 0.01 0.00 97 1009.9
20201025231931 49 155 0.0 2.0 0.00 0.01 0.00 97 1009.8
20201025231430 49 155 1.0 4.0 0.00 0.01 0.00 97 1009.8
20201025230931 49 153 1.0 4.0 0.00 0.01 0.00 97 1009.9
20201025230431 49 158 2.0 4.0 0.00 0.01 0.00 97 1009.9
20201025225932 49 165 1.0 3.0 0.00 0.01 0.00 97 1009.9
20201025225433 49 177 2.0 5.0 0.00 0.01 0.01 97 1010.0
20201025224931 50 187 2.0 5.0 0.00 0.01 0.01 97 1009.9
20201025224432 49 188 2.0 5.0 0.00 0.01 0.01 97 1010.0
20201025223933 49 177 1.0 4.0 0.00 0.01 0.01 97 1010.0
20201025223432 50 173 1.0 4.0 0.00 0.01 0.01 97 1010.0
20201025222933 50 169 1.0 4.0 0.00 0.02 0.01 97 1010.0
20201025222432 50 185 2.0 4.0 0.00 0.02 0.01 97 1009.9
20201025221931 50 174 1.0 4.0 0.00 0.02 0.01 97 1009.9
20201025221431 50 158 1.0 4.0 0.00 0.02 0.01 97 1010.0
20201025220934 50 172 1.0 4.0 0.00 0.02 0.01 97 1010.0
20201025220436 50 179 1.0 4.0 0.00 0.02 0.01 97 1010.0
20201025215933 50 175 1.0 4.0 0.00 0.02 0.01 97 1009.9
20201025215431 50 167 0.0 3.0 0.00 0.02 0.01 97 1010.0
20201025214932 50 154 1.0 4.0 0.00 0.02 0.01 97 1009.9
20201025214430 50 161 0.0 4.0 0.00 0.02 0.01 97 1009.9
20201025213934 50 153 0.0 4.0 0.00 0.02 0.01 97 1009.8
20201025213433 50 104 1.0 4.0 0.00 0.02 0.01 97 1009.8
20201025212932 50 123 0.0 4.0 0.00 0.02 0.01 97 1009.9
20201025212437 50 140 0.0 3.0 0.00 0.02 0.01 97 1009.9
20201025211933 50 132 0.0 1.0 0.00 0.02 0.01 97 1009.9
20201025211432 50 162 0.0 1.0 0.00 0.02 0.01 97 1009.9
20201025210934 50 73 0.0 2.0 0.00 0.02 0.01 97 1009.9
20201025210431 50 103 0.0 2.0 0.00 0.02 0.01 97 1010.0
20201025205934 50 156 0.0 2.0 0.00 0.02 0.01 97 1010.0
20201025205432 50 165 1.0 4.0 0.00 0.02 0.01 97 1010.1
20201025204931 50 185 1.0 4.0 0.00 0.02 0.01 97 1010.2
20201025204435 50 199 1.0 4.0 0.00 0.02 0.01 97 1010.3
20201025203932 50 156 1.0 2.0 0.00 0.02 0.01 97 1010.3
20201025203433 50 148 1.0 2.0 0.00 0.02 0.01 97 1010.3
20201025202931 50 155 1.0 3.0 0.00 0.02 0.01 97 1010.3
20201025202431 50 166 1.0 3.0 0.00 0.02 0.01 97 1010.4
20201025201932 50 190 1.0 3.0 0.00 0.02 0.01 96 1010.5
20201025201439 50 203 0.0 2.0 0.00 0.02 0.01 96 1010.5
20201025200933 50 185 0.0 2.0 0.00 0.02 0.01 96 1010.5
20201025200433 50 172 0.0 3.0 0.00 0.02 0.01 96 1010.4
20201025195933 50 159 1.0 4.0 0.00 0.02 0.01 96 1010.4
20201025195431 50 169 2.0 4.0 0.00 0.02 0.01 96 1010.4
20201025194932 50 165 2.0 4.0 0.00 0.02 0.01 96 1010.4
20201025194433 50 157 2.0 5.0 0.00 0.02 0.01 96 1010.4
20201025193937 50 159 2.0 5.0 0.00 0.02 0.01 96 1010.5
20201025193439 50 158 1.0 5.0 0.00 0.02 0.01 96 1010.6
20201025192932 50 145 0.0 3.0 0.00 0.02 0.01 96 1010.5
20201025192436 50 145 0.0 3.0 0.00 0.02 0.01 96 1010.5
20201025191932 50 149 0.0 3.0 0.00 0.02 0.01 96 1010.5
20201025191444 50 166 1.0 6.0 0.00 0.02 0.01 96 1010.5
20201025190945 50 177 2.0 6.0 0.00 0.02 0.01 96 1010.5
20201025190434 50 171 3.0 5.0 0.00 0.02 0.01 96 1010.6
20201025185935 50 160 2.0 7.0 0.00 0.02 0.01 96 1010.5
20201025185433 50 163 1.0 7.0 0.00 0.02 0.01 95 1010.6
20201025184932 50 182 2.0 6.0 0.00 0.02 0.01 95 1010.6
20201025184431 50 183 2.0 6.0 0.00 0.02 0.01 95 1010.6
20201025183936 51 170 1.0 5.0 0.00 0.02 0.01 95 1010.6
20201025183434 51 147 1.0 4.0 0.00 0.02 0.01 95 1010.7
20201025182934 51 138 1.0 4.0 0.00 0.02 0.01 95 1010.6
20201025182438 51 135 1.0 6.0 0.00 0.02 0.01 95 1010.5
20201025181935 51 157 2.0 6.0 0.00 0.02 0.01 95 1010.5
20201025181454 51 172 1.0 4.0 0.00 0.02 0.01 95 1010.5
20201025180933 51 149 1.0 5.0 0.00 0.02 0.01 95 1010.5
20201025180432 51 148 1.0 6.0 0.00 0.02 0.01 95 1010.6
20201025175943 51 159 2.0 6.0 0.00 0.02 0.01 95 1010.6
20201025175433 51 162 1.0 6.0 0.00 0.02 0.01 95 1010.7
20201025174934 51 157 1.0 5.0 0.00 0.02 0.01 95 1010.8
20201025174441 51 151 1.0 3.0 0.00 0.02 0.01 95 1010.8
20201025173939 51 144 1.0 4.0 0.00 0.02 0.01 95 1010.8
20201025173440 51 139 0.0 4.0 0.00 0.02 0.01 94 1010.6
20201025172932 51 77 1.0 4.0 0.00 0.02 0.01 94 1010.6
20201025172433 51 65 2.0 5.0 0.00 0.02 0.01 94 1010.6
20201025171933 51 65 2.0 6.0 0.00 0.02 0.01 94 1010.6
20201025171436 51 63 2.0 6.0 0.00 0.02 0.01 94 1010.7
20201025170933 51 63 2.0 6.0 0.00 0.02 0.01 94 1010.7
20201025170457 51 68 1.0 5.0 0.00 0.02 0.01 94 1010.7
20201025165933 51 93 0.0 3.0 0.00 0.02 0.01 94 1010.7
20201025165449 51 116 0.0 3.0 0.00 0.02 0.01 94 1010.7
20201025164933 51 150 1.0 3.0 0.00 0.02 0.01 94 1010.8
20201025164432 51 157 1.0 4.0 0.00 0.02 0.01 94 1010.8
20201025163932 51 155 1.0 4.0 0.00 0.02 0.01 94 1010.9
20201025163433 51 155 1.0 4.0 0.00 0.02 0.01 94 1010.8
20201025162932 51 156 1.0 6.0 0.00 0.02 0.01 94 1010.9
20201025162433 52 167 1.0 6.0 0.00 0.02 0.01 93 1010.9
20201025161933 52 163 1.0 4.0 0.00 0.02 0.01 93 1010.9
20201025161433 52 149 1.0 4.0 0.00 0.02 0.01 93 1010.8
20201025160936 52 151 0.0 3.0 0.00 0.02 0.01 93 1010.8
20201025160432 52 131 0.0 3.0 0.00 0.02 0.01 92 1010.9
20201025155943 52 75 1.0 5.0 0.00 0.02 0.01 92 1011.0
20201025155434 53 72 2.0 5.0 0.00 0.02 0.01 92 1010.9
20201025154933 53 68 2.0 6.0 0.00 0.02 0.01 91 1011.0
20201025154432 53 66 3.0 8.0 0.00 0.02 0.01 91 1011.0
20201025153932 53 67 2.0 8.0 0.00 0.02 0.01 90 1011.0
20201025153433 54 66 2.0 6.0 0.00 0.02 0.01 89 1011.0
20201025152933 54 64 2.0 6.0 0.00 0.02 0.01 88 1011.0
20201025152434 55 67 2.0 6.0 0.00 0.02 0.01 88 1011.0
20201025151934 56 68 2.0 8.0 0.00 0.02 0.01 86 1010.9
20201025151434 56 72 1.0 8.0 0.00 0.02 0.01 85 1010.9
20201025150933 57 155 1.0 4.0 0.00 0.02 0.01 83 1010.8
20201025150434 57 164 1.0 4.0 0.00 0.02 0.01 83 1010.9
20201025145934 58 162 1.0 4.0 0.00 0.02 0.01 82 1010.9
20201025145432 58 159 1.0 4.0 0.00 0.02 0.01 81 1010.9
20201025144935 59 166 2.0 5.0 0.00 0.02 0.01 80 1010.9
20201025144433 59 158 2.0 5.0 0.00 0.02 0.01 79 1010.9
20201025143935 59 153 2.0 4.0 0.00 0.02 0.01 79 1010.9
20201025143435 60 156 2.0 7.0 0.00 0.02 0.01 78 1010.9
20201025142932 60 161 3.0 7.0 0.00 0.02 0.01 77 1011.0
20201025142436 60 159 3.0 7.0 0.00 0.02 0.01 76 1011.0
20201025141935 60 163 2.0 7.0 0.00 0.02 0.01 76 1011.0
20201025141436 60 166 2.0 7.0 0.00 0.02 0.01 76 1011.0
20201025140942 60 160 2.0 5.0 0.00 0.02 0.01 76 1011.0
20201025140433 61 162 2.0 5.0 0.00 0.02 0.01 75 1011.0
20201025135934 61 165 2.0 5.0 0.00 0.02 0.01 75 1011.1
20201025135432 61 156 2.0 6.0 0.00 0.02 0.01 75 1011.1
20201025134932 61 154 2.0 6.0 0.00 0.02 0.01 74 1011.2
20201025134434 61 168 2.0 6.0 0.00 0.02 0.01 75 1011.2
20201025133940 60 171 3.0 6.0 0.00 0.02 0.01 75 1011.2
20201025133437 60 171 3.0 6.0 0.00 0.02 0.01 75 1011.3
20201025132935 60 168 2.0 6.0 0.00 0.02 0.01 76 1011.3
20201025132435 61 175 2.0 6.0 0.00 0.02 0.01 76 1011.4
20201025131934 61 169 3.0 6.0 0.00 0.02 0.01 76 1011.4
20201025131443 61 159 2.0 6.0 0.00 0.02 0.01 76 1011.5
20201025130933 61 151 2.0 5.0 0.00 0.02 0.01 77 1011.4
20201025130433 61 150 2.0 5.0 0.00 0.02 0.01 76 1011.5
20201025125933 61 165 2.0 5.0 0.00 0.02 0.01 77 1011.5
20201025125433 61 167 2.0 5.0 0.00 0.02 0.01 78 1011.6
20201025124933 61 158 2.0 4.0 0.00 0.02 0.01 78 1011.6
20201025124436 61 157 2.0 6.0 0.00 0.02 0.01 77 1011.7
20201025123933 60 151 2.0 6.0 0.00 0.02 0.01 78 1011.7
20201025123433 60 177 2.0 6.0 0.00 0.02 0.01 78 1011.9
20201025122933 60 196 1.0 6.0 0.00 0.02 0.01 79 1011.9
20201025122435 60 175 2.0 6.0 0.00 0.02 0.01 80 1011.9
20201025121933 60 176 4.0 8.0 0.00 0.02 0.01 80 1012.0
20201025121434 59 176 4.0 8.0 0.00 0.02 0.01 81 1012.1
20201025120933 59 162 3.0 7.0 0.00 0.02 0.01 81 1012.2
20201025120434 59 163 3.0 8.0 0.00 0.02 0.01 81 1012.2
20201025115933 59 169 4.0 8.0 0.00 0.02 0.01 82 1012.2
20201025115434 59 170 4.0 6.0 0.00 0.02 0.01 84 1012.2
20201025114938 58 161 4.0 9.0 0.00 0.02 0.01 87 1012.2
20201025114434 58 157 4.0 9.0 0.00 0.02 0.01 90 1012.3
20201025113934 57 161 3.0 9.0 0.00 0.02 0.01 96 1012.4
20201025113435 56 165 4.0 9.0 0.00 0.02 0.01 98 1012.4
20201025112936 56 166 3.0 9.0 0.00 0.02 0.01 99 1012.5
20201025112436 56 168 3.0 8.0 0.00 0.02 0.01 99 1012.6
20201025111936 56 174 3.0 8.0 0.00 0.02 0.01 99 1012.7
20201025111437 56 169 3.0 8.0 0.00 0.02 0.01 99 1012.8
20201025110938 56 164 2.0 6.0 0.00 0.02 0.01 99 1012.9
20201025110435 56 177 2.0 6.0 0.00 0.02 0.01 99 1012.9
20201025105938 55 179 2.0 6.0 0.00 0.02 0.01 99 1013.0
20201025105434 55 158 1.0 5.0 0.00 0.02 0.01 99 1013.0
20201025104940 54 148 1.0 5.0 0.00 0.02 0.01 99 1013.0
20201025104436 54 158 1.0 5.0 0.00 0.02 0.01 99 1013.1
20201025103937 53 160 1.0 5.0 0.00 0.02 0.01 99 1013.2
20201025103435 53 102 1.0 5.0 0.00 0.02 0.01 99 1013.2
20201025102934 53 80 1.0 4.0 0.00 0.02 0.01 99 1013.3
20201025102434 52 80 2.0 6.0 0.00 0.02 0.01 99 1013.4
20201025101938 52 79 2.0 6.0 0.00 0.02 0.01 99 1013.4
20201025101436 52 97 2.0 6.0 0.00 0.02 0.01 99 1013.5
20201025100936 52 141 2.0 5.0 0.00 0.02 0.01 99 1013.6
20201025100435 52 140 2.0 5.0 0.00 0.02 0.01 99 1013.7
20201025095936 52 150 1.0 5.0 0.00 0.02 0.01 99 1013.8
20201025095433 52 167 2.0 6.0 0.00 0.02 0.01 99 1013.8
20201025094933 52 149 2.0 6.0 0.00 0.02 0.01 99 1013.9
20201025094435 52 109 1.0 5.0 0.00 0.02 0.01 99 1013.8
20201025093938 51 144 1.0 5.0 0.00 0.02 0.01 99 1013.9
20201025093435 51 158 1.0 5.0 0.00 0.02 0.01 99 1013.9
20201025092934 51 87 1.0 7.0 0.00 0.02 0.01 99 1014.0
20201025092434 50 72 1.0 7.0 0.00 0.02 0.01 99 1014.0
20201025091937 50 72 1.0 4.0 0.00 0.02 0.01 99 1014.0
20201025091434 50 74 1.0 6.0 0.00 0.02 0.01 99 1014.1
20201025090934 50 72 1.0 6.0 0.00 0.02 0.01 99 1014.2
20201025090433 50 77 1.0 6.0 0.00 0.02 0.01 99 1014.2
20201025085935 49 76 1.0 6.0 0.00 0.02 0.01 99 1014.2
20201025085434 49 68 1.0 4.0 0.00 0.02 0.01 99 1014.3
20201025084933 49 69 1.0 4.0 0.00 0.02 0.01 99 1014.3
20201025084438 49 71 1.0 4.0 0.00 0.02 0.01 99 1014.4
20201025083935 49 74 1.0 4.0 0.00 0.02 0.01 99 1014.5
20201025083434 49 81 1.0 4.0 0.00 0.02 0.01 99 1014.5
20201025082936 49 81 1.0 4.0 0.00 0.02 0.01 99 1014.6
20201025082438 49 73 1.0 4.0 0.00 0.02 0.01 99 1014.6
20201025081935 49 93 0.0 2.0 0.00 0.02 0.01 99 1014.5
20201025081434 49 147 0.0 3.0 0.00 0.02 0.01 99 1014.6
20201025080933 48 157 1.0 6.0 0.00 0.02 0.01 99 1014.5
20201025080435 48 132 2.0 6.0 0.00 0.02 0.01 99 1014.6
20201025075942 48 104 2.0 5.0 0.00 0.02 0.01 99 1014.6
20201025075440 48 130 1.0 5.0 0.00 0.02 0.01 99 1014.6
20201025074940 48 130 1.0 5.0 0.00 0.02 0.01 99 1014.6
20201025074442 48 126 1.0 5.0 0.00 0.02 0.01 99 1014.7
20201025073934 47 135 1.0 3.0 0.00 0.02 0.01 99 1014.7
20201025073434 47 95 1.0 3.0 0.00 0.02 0.01 99 1014.8
20201025072938 47 88 1.0 4.0 0.00 0.02 0.01 99 1014.8
20201025072435 47 139 1.0 4.0 0.00 0.02 0.01 99 1014.9
20201025071935 47 163 1.0 4.0 0.00 0.02 0.01 99 1014.9
20201025071441 47 163 0.0 2.0 0.00 0.02 0.01 99 1014.8
20201025070935 47 129 0.0 2.0 0.00 0.02 0.01 99 1014.8
20201025070434 47 86 0.0 2.0 0.00 0.02 0.01 99 1014.8
20201025065936 47 96 0.0 3.0 0.00 0.02 0.01 99 1014.9
20201025065436 47 129 0.0 3.0 0.00 0.02 0.01 99 1014.9
20201025064943 47 152 0.0 2.0 0.00 0.02 0.01 99 1014.9
20201025064434 47 93 0.0 2.0 0.00 0.02 0.01 99 1014.9
20201025063934 46 78 0.0 2.0 0.00 0.02 0.01 99 1014.9
20201025063435 46 55 0.0 1.0 0.00 0.02 0.01 99 1014.8
20201025062935 46 61 0.0 2.0 0.00 0.02 0.01 99 1014.8
20201025062435 46 63 0.0 2.0 0.00 0.02 0.01 99 1014.9
20201025061936 46 72 0.0 2.0 0.00 0.02 0.01 99 1014.9
20201025061436 46 74 0.0 2.0 0.00 0.02 0.01 99 1015.0
20201025060935 46 72 0.0 2.0 0.00 0.02 0.01 99 1015.0
20201025060436 46 67 0.0 2.0 0.00 0.02 0.01 99 1015.0
20201025055935 46 73 0.0 1.0 0.00 0.02 0.01 99 1015.0
20201025055437 46 0 0.0 0.0 0.00 0.02 0.01 99 1014.9
20201025054934 46 0 0.0 0.0 0.00 0.02 0.01 99 1014.8
20201025054434 46 66 0.0 1.0 0.00 0.02 0.01 99 1014.9
20201025053934 46 67 0.0 1.0 0.00 0.02 0.01 99 1014.8
20201025053434 46 67 0.0 1.0 0.00 0.02 0.01 99 1014.8
20201025052940 46 59 0.0 2.0 0.00 0.02 0.01 99 1014.7
20201025052435 46 70 0.0 2.0 0.00 0.02 0.01 99 1014.8
20201025051935 46 75 0.0 2.0 0.00 0.02 0.01 99 1014.8
20201025051434 45 70 0.0 2.0 0.00 0.02 0.01 99 1014.7
20201025050935 45 69 0.0 2.0 0.00 0.02 0.01 99 1014.7
20201025050437 45 116 0.0 1.0 0.00 0.02 0.01 99 1014.7
20201025045940 45 96 0.0 1.0 0.00 0.02 0.01 99 1014.7
20201025045437 45 84 0.0 1.0 0.00 0.02 0.01 99 1014.7
20201025044936 45 54 0.0 3.0 0.00 0.02 0.01 99 1014.7
20201025044436 45 62 1.0 3.0 0.00 0.02 0.01 99 1014.6
20201025043934 45 61 1.0 3.0 0.00 0.02 0.01 99 1014.7
20201025043436 46 56 1.0 3.0 0.00 0.02 0.01 99 1014.6
20201025042935 46 56 0.0 3.0 0.00 0.02 0.01 99 1014.7
20201025042436 46 60 0.0 1.0 0.00 0.02 0.01 99 1014.7
20201025041936 46 58 0.0 2.0 0.00 0.02 0.01 99 1014.8
20201025041443 46 66 0.0 2.0 0.00 0.02 0.01 99 1014.7
20201025040936 46 86 0.0 1.0 0.01 0.02 0.01 99 1014.8
20201025040435 46 109 0.0 1.0 0.01 0.02 0.01 99 1014.8
20201025035935 46 109 0.0 1.0 0.01 0.02 0.01 99 1014.9
20201025035436 46 0 0.0 0.0 0.01 0.02 0.01 99 1014.9
20201025034940 46 118 0.0 1.0 0.01 0.02 0.01 99 1014.9
20201025034438 46 105 0.0 1.0 0.01 0.02 0.01 99 1015.0
20201025033936 46 87 0.0 1.0 0.01 0.02 0.01 99 1015.0
20201025033442 46 171 0.0 1.0 0.01 0.02 0.01 99 1015.0
20201025032936 46 166 0.0 2.0 0.01 0.02 0.01 98 1015.1
20201025032435 46 162 0.0 2.0 0.01 0.02 0.01 98 1015.1
20201025031938 46 169 0.0 1.0 0.01 0.02 0.01 98 1015.1
20201025031437 46 187 0.0 1.0 0.01 0.02 0.01 99 1015.2
20201025030941 46 170 0.0 2.0 0.00 0.01 0.00 98 1015.1
20201025030436 46 170 0.0 2.0 0.00 0.01 0.00 98 1015.1
20201025025936 46 0 0.0 0.0 0.00 0.01 0.00 98 1015.1
20201025025438 46 128 0.0 1.0 0.00 0.01 0.00 99 1015.1
20201025024937 46 128 0.0 1.0 0.00 0.01 0.00 98 1015.2
20201025024435 46 0 0.0 0.0 0.00 0.01 0.00 98 1015.2
20201025023936 46 0 0.0 0.0 0.00 0.01 0.00 98 1015.2
20201025023439 46 184 0.0 2.0 0.00 0.01 0.00 98 1015.2
20201025022936 46 179 0.0 3.0 0.00 0.01 0.00 98 1015.2
20201025022443 46 166 0.0 3.0 0.00 0.01 0.00 98 1015.3
20201025021934 46 124 0.0 1.0 0.00 0.01 0.00 98 1015.2
20201025021438 46 147 0.0 1.0 0.00 0.01 0.00 98 1015.3
20201025020936 46 147 0.0 1.0 0.00 0.01 0.00 98 1015.3
20201025020435 46 107 0.0 1.0 0.00 0.01 0.00 98 1015.2
20201025015936 46 76 0.0 2.0 0.00 0.01 0.00 98 1015.3
20201025015443 46 116 0.0 2.0 0.00 0.01 0.00 98 1015.3
20201025014938 46 210 0.0 1.0 0.00 0.01 0.00 98 1015.4
20201025014443 46 0 0.0 0.0 0.00 0.01 0.00 98 1015.4
20201025013935 46 0 0.0 0.0 0.00 0.01 0.00 98 1015.4
20201025013435 46 0 0.0 0.0 0.00 0.01 0.00 98 1015.4
20201025012935 46 0 0.0 0.0 0.00 0.01 0.00 98 1015.5